Flag for Germany Weather past 2 weeks in Laatzen, Lower Saxony, Germany

Now
66 °F

Passing clouds.


Feels Like: 66 °F
Forecast: 57 / 78 °F
Wind: 2 mph from East

Location: Hannover

Current Time: Aug 4, 2015 at 6:17:18 AM

Latest Report: Aug 4, 2015 at 4:00 AM


Visibility: 22 mi

Pressure: 29.92 "Hg

Humidity: 69%

Dew point: 56 °F

Location of LaatzenLocation

Historic Weather in Laatzen — Graph

°F

Laatzen temperature yesterday

Maximum temperature yesterday: 89 °F (at 6:00 PM)
Minimum temperature yesterday: 55 °F (at 4:00 AM)
Average temperature yesterday: 75 °F

Past Weeks' High & Low Weather Summary

 TemperatureHumidityPressure
High89 °F (Aug 3, 6:00 PM)97% (Jul 21, 1:00 AM)30.16 "Hg (Jul 21, 1:00 AM)
Low47 °F (Aug 1, 4:00 AM)28% (Aug 2, 5:00 PM)29.47 "Hg (Jul 25, 1:00 PM)
Average65 °F67%29.87 "Hg
* Reported Jul 20 4:00 AM — Aug 4 4:00 AM, Laatzen, Weather by CustomWeather, © 2015

Note: Actual official high and low records may vary slightly from our data, if they occured in-between our weather recording intervals... More about our weather records

Advertising

Laatzen weather history for previous 24 hours

 ConditionsComfort  
Time TempWeatherWind HumidityBarometerVisibility
4:00 AM
Tue, Aug 4
66 °FPassing clouds.2 mph69%29.92 "Hg22 mi
3:00 AM67 °FPassing clouds.3 mph67%29.93 "Hg22 mi
2:00 AM69 °FPassing clouds.2 mph61%29.94 "Hg22 mi
1:00 AM74 °FPassing clouds.3 mph53%29.94 "Hg22 mi
10:00 PM
Mon, Aug 3
76 °FPassing clouds.2 mph50%29.95 "Hg25 mi
9:00 PM80 °FScattered clouds.2 mph43%29.95 "Hg28 mi
8:00 PM86 °FScattered clouds.5 mph33%29.94 "Hg28 mi
7:00 PM88 °FScattered clouds.5 mph29%29.94 "Hg28 mi
6:00 PM89 °FScattered clouds.5 mph29%29.96 "Hg28 mi
5:00 PM89 °FPassing clouds.6 mph29%29.97 "Hg28 mi
4:00 PM88 °FPassing clouds.6 mph30%29.98 "Hg25 mi
3:00 PM88 °FPassing clouds.7 mph30%29.99 "Hg22 mi
2:00 PM87 °FPassing clouds.6 mph31%30.00 "Hg19 mi
1:00 PM85 °FPassing clouds.7 mph34%30.01 "Hg19 mi
12:00 PM81 °FPassing clouds.5 mph41%30.03 "Hg19 mi
11:00 AM76 °FPassing clouds.6 mph44%30.05 "Hg19 mi
10:00 AM71 °FPassing clouds.5 mph53%30.05 "Hg19 mi
9:00 AM66 °FScattered clouds.6 mph61%30.06 "Hg19 mi
8:00 AM61 °FScattered clouds.3 mph72%30.06 "Hg22 mi
7:00 AM58 °FPartly sunny.5 mph73%30.07 "Hg22 mi
Weather by CustomWeather, © 2015

See weather overviewHow to use our weather pages